User: anonymous   Login
Location: S�tio Afonso Gruber
(26.1760°S, 49.5250°W)
Time: 16:18:46
(UTC+00:00)
Language:

LO-87 - Orbit

View from above orbital plane
View from above orbital plane
View from above satellite
View from above satellite

Ground track
Ground track

The orbit data is extracted from the following two-line orbital elements,

1 41557U 16033B   22334.28416591  .00018208  00000-0  46001-3 0  9998
2 41557  97.3905  72.7917 0010682 139.6780 281.2432 15.39805440362856
Epoch (UTC): 30 November 2022 06:49:11
Eccentricity: 0.0010682
inclination: 97.3905°
perigee height: 439 km
apogee height: 454 km
right ascension of ascending node: 72.7917°
argument of perigee: 139.6780°
revolutions per day: 15.39805440
mean anomaly at epoch: 281.2432°
orbit number at epoch: 36285

The dashed part of the orbit path shows where the satellite is in the earth's shadow,  

DLR